Flag for Germany Weather past 2 weeks in Bad Hersfeld, Hesse, Germany

34 °F

Partly sunny.

Feels Like: 29 °F
Forecast: 30 / 42 °F
Wind: 6 mph from South

Location: Fritzlar Airport

Current Time: Nov 27, 2015 at 5:35:51 PM

Latest Report: Nov 27, 2015 at 4:20 PM

Visibility: N/A

Pressure: 30.01 "Hg

Humidity: 87%

Dew point: 30 °F

Location of Bad HersfeldLocation

Historic Weather in Bad Hersfeld — Graph


Bad Hersfeld temperature yesterday

Maximum temperature yesterday: 43 °F (at 1:20 PM)
Minimum temperature yesterday: 34 °F (at 6:20 PM)
Average temperature yesterday: 38 °F

Past Weeks' High & Low Weather Summary

High59 °F (Nov 17, 1:20 PM)100% (Nov 23, 9:20 PM)30.30 "Hg (Nov 23, 9:20 PM)
Low27 °F (Nov 23, 10:20 PM)55% (Nov 18, 11:20 AM)29.39 "Hg (Nov 21, 6:20 AM)
Average43 °F83%29.90 "Hg
* Reported Nov 12 4:20 PM — Nov 27 4:20 PM, Bad Hersfeld, Weather by CustomWeather, © 2015

Note: Actual official high and low records may vary slightly from our data, if they occured in-between our weather recording intervals... More about our weather records


Bad Hersfeld weather history for previous 24 hours

Time TempWeatherWind HumidityBarometerVisibility
4:20 PM
Fri, Nov 27
34 °FPartly sunny.6 mph87%30.01 "HgN/A
3:20 PM34 °FPartly sunny.8 mph87%30.04 "HgN/A
2:20 PM34 °FPartly sunny.9 mph87%30.04 "Hg5 mi
1:20 PM34 °FPartly sunny.12 mph93%30.07 "Hg4 mi
12:20 PM34 °FFog.8 mph93%30.09 "Hg2 mi
11:20 AM32 °FIce fog.7 mph100%30.09 "Hg1 mi
10:20 AM30 °FIce fog.6 mph100%30.12 "Hg1 mi
9:20 AM30 °FIce fog.8 mph100%30.12 "Hg1 mi
8:20 AM30 °FIce fog.6 mph93%30.12 "Hg0 mi
7:20 AM30 °FIce fog.2 mph93%30.12 "Hg1 mi
6:20 AM30 °FIce fog.3 mph93%30.15 "Hg0 mi
5:20 AM30 °FIce fog.3 mph93%30.15 "Hg0 mi
4:20 AM30 °FIce fog.3 mph100%30.15 "Hg0 mi
3:20 AM30 °FIce fog.1 mph93%30.15 "Hg0 mi
2:20 AM30 °FIce fog.2 mph93%30.18 "Hg0 mi
1:50 AM30 °FIce fog.No wind93%30.18 "Hg0 mi
1:20 AM30 °FIce fog.1 mph100%30.15 "Hg1 mi
12:20 AM30 °FIce fog.2 mph100%30.15 "Hg1 mi
11:20 PM
Thu, Nov 26
34 °FPassing clouds.1 mph93%30.15 "HgN/A
10:20 PM34 °FPassing clouds.2 mph93%30.15 "HgN/A
9:20 PM34 °FPassing clouds.No wind93%30.15 "HgN/A
8:20 PM34 °FPassing clouds.2 mph93%30.15 "HgN/A
7:20 PM34 °FPassing clouds.2 mph93%30.12 "HgN/A
6:20 PM34 °FPassing clouds.1 mph93%30.12 "HgN/A
5:20 PM37 °FPassing clouds.5 mph81%30.09 "HgN/A
Weather by CustomWeather, © 2015

See weather overviewHow to use our weather pages